Location: Unspecified
(47.8330°N, 0.0000°E)
Time: 20:10:36
(UTC+00:00)

VELOX 1 - Pass Details

Date: 03 September 2019
Orbit: 629 x 643 km, 98.2° (Epoch: 23 September)

Event Time Altitude Azimuth Distance (km) Brightness Sun altitude
Exits shadow 00:02:22 16° 42° (NE) 1,642 ? -34.4°
Drops below altitude 10° 00:04:14 10° 18° (NNE) 2,032 ? -34.4°
Sets 00:07:01 0° 360° (N) 2,948 ? -34.4°
